Vorticity
8 8 9 9 9 9 9 10 10 11 11 11 11 11 11 10 10 9 9 10 10 10 10 10 10 10 11 11 12 12 12 12 13 14 14 14 13 13 13 12 12 11 10 12 13 13 12 12 11 11 10 11 11 9 9 9 9 9 11 11 12 14 10 3 7 16 8 -6 0 15 14 5 9 10 3 14 14 9 11 4 2 2 3 6 6 4 0 2
8 9 9 9 9 10 10 11 11 11 12 12 12 11 12 11 9 8 8 8 8 9 9 9 9 9 10 11 11 11 11 12 12 12 13 13 14 14 13 13 13 12 12 12 12 12 12 12 10 9 9 9 9 8 9 9 8 10 11 10 12 10 7 5 -4 -2 -1 -12 -1 19 15 5 11 9 4 15 13 7 8 6 12 6 3 11 4 -0 4 4
9 9 9 10 10 10 11 11 11 11 12 13 13 12 13 12 10 8 7 7 7 7 7 7 8 8 9 10 10 10 11 11 11 11 12 13 13 13 13 13 13 12 12 11 10 10 11 11 10 10 9 9 9 8 10 8 6 9 8 9 14 7 -2 2 2 -4 -4 -1 7 14 11 7 13 9 2 13 16 14 11 10 12 6 12 15 -2 -1 6 6
9 9 9 9 10 10 10 10 10 10 11 13 14 13 13 13 11 8 6 6 6 6 6 6 7 7 8 9 9 10 10 9 9 11 10 12 13 12 12 12 12 11 11 11 10 10 9 9 9 9 8 8 8 8 8 8 10 9 5 10 14 5 -7 -4 10 10 3 8 11 9 10 10 13 11 1 4 11 9 6 10 10 15 23 5 -8 8 9 5
8 8 9 9 9 9 10 10 10 10 10 11 13 14 14 13 13 10 7 5 5 5 6 6 6 7 7 7 8 8 9 8 12 14 10 10 11 11 11 10 11 10 10 10 9 10 9 9 8 7 7 7 7 7 8 8 10 7 5 11 1 -6 6 4 -1 5 8 12 11 7 8 9 13 12 4 1 7 6 3 8 8 13 16 -3 -0 16 9 7
8 8 8 9 9 9 9 9 9 9 9 9 11 12 14 14 14 13 9 6 4 5 6 6 5 6 7 7 6 5 6 7 10 13 13 12 10 9 9 8 9 8 9 9 9 10 8 9 8 7 7 7 6 6 8 7 7 7 8 13 1 -2 16 9 -1 8 11 9 8 7 7 10 12 11 11 5 3 6 5 7 3 -1 -1 -3 2 7 7 10
8 8 8 8 8 9 9 9 10 9 9 9 9 10 11 13 14 14 13 9 5 4 5 5 4 6 7 6 6 4 3 4 3 6 11 13 11 10 8 7 7 7 8 8 8 8 7 8 7 8 8 6 6 6 6 5 5 7 7 9 4 6 9 -1 3 11 6 7 8 6 7 10 8 9 14 9 4 3 1 4 6 5 1 -2 -1 2 6 7
7 7 7 7 8 8 9 9 10 10 10 9 9 9 9 11 13 13 14 13 7 4 5 4 3 3 5 6 5 5 5 4 3 2 5 10 13 12 10 9 8 6 7 7 7 6 7 7 7 7 6 5 5 5 6 5 5 7 6 5 4 9 5 -4 6 10 3 6 7 6 8 7 5 5 8 9 7 3 1 2 5 8 7 3 4 7 5 5
7 7 7 7 7 8 8 9 9 10 10 10 11 10 10 10 11 12 13 15 12 6 5 5 4 3 3 4 4 4 5 5 6 5 1 4 10 11 11 11 10 9 8 7 7 7 7 6 6 6 6 6 5 6 5 4 6 5 5 5 6 11 7 -1 5 7 4 6 6 7 7 6 5 2 4 10 10 7 7 5 3 4 5 8 7 6 7 8
7 7 7 7 7 7 8 8 9 9 10 11 11 11 12 11 12 13 12 13 15 10 5 5 6 5 3 3 2 3 5 5 8 10 6 3 4 9 10 8 9 9 9 10 9 8 8 7 8 7 6 6 5 6 6 6 7 6 5 5 5 7 7 5 5 6 6 5 6 8 6 6 8 3 2 11 10 6 9 9 8 6 5 9 6 8 10 5
7 7 7 7 7 7 7 7 8 8 9 9 11 12 13 13 13 14 13 12 14 13 9 6 7 8 7 5 3 3 5 6 9 10 11 8 3 5 8 8 7 7 7 8 8 9 9 9 9 7 8 8 6 6 6 7 8 6 7 5 6 8 6 5 5 7 8 5 6 9 6 4 10 9 7 15 12 4 8 10 7 6 8 7 2 7 8 2
7 7 6 6 6 6 6 7 7 7 7 7 8 11 13 15 15 15 16 13 11 13 12 8 7 9 10 10 8 7 6 6 9 10 12 13 7 3 5 9 8 7 7 7 7 8 8 8 8 8 9 10 8 8 8 8 7 8 9 7 7 9 7 5 7 7 6 8 7 5 5 5 11 9 1 7 8 5 9 8 6 6 8 11 6 6 5 2
7 7 6 6 6 6 6 6 7 7 7 6 6 8 11 14 16 16 16 16 12 11 13 11 8 9 10 10 10 10 8 8 10 10 10 12 11 6 3 5 7 8 7 7 8 8 7 8 8 10 12 10 11 12 10 10 9 8 9 10 9 8 7 5 6 6 6 8 5 6 7 2 8 10 7 8 5 6 8 6 9 7 5 10 9 5 4 5
7 7 7 6 6 6 6 6 7 7 7 6 6 5 7 12 15 17 17 18 15 10 11 12 9 8 8 9 9 9 10 10 10 10 11 10 11 11 8 5 5 7 7 7 7 7 7 8 9 12 11 9 12 14 10 11 13 11 10 10 8 7 6 6 6 3 6 7 3 9 7 3 8 3 4 10 3 6 10 7 7 6 8 9 7 6 7 9
7 6 6 6 6 6 6 7 7 7 7 7 6 5 5 8 13 17 17 18 16 11 10 11 9 8 6 7 8 8 10 11 11 11 10 10 10 12 11 8 6 7 8 8 7 7 8 9 12 12 10 10 9 9 11 13 12 13 13 11 9 9 7 13 16 4 3 8 4 7 3 8 19 4 9 21 6 3 9 8 6 4 9 7 5 8 6 8
7 7 7 6 6 6 6 6 7 7 7 6 7 6 5 5 9 15 18 18 16 13 10 10 9 7 6 7 8 9 11 11 13 12 9 9 10 11 10 9 8 8 8 8 8 8 9 11 12 11 12 13 12 10 12 13 12 13 14 11 10 11 4 8 23 12 2 8 5 8 7 3 13 11 16 22 8 6 9 7 8 5 9 7 4 9 7 8
8 8 8 7 7 6 6 6 7 7 7 6 6 6 6 5 6 12 17 19 17 13 10 10 9 7 7 7 7 8 11 13 13 12 10 9 10 11 9 8 8 8 9 9 9 9 11 12 12 13 11 10 13 13 11 12 12 13 13 13 12 14 4 -6 17 26 6 6 4 6 11 -4 2 10 -4 -3 6 8 8 6 8 8 9 8 5 9 8 7
7 7 7 7 7 6 6 6 6 7 7 6 5 6 6 5 5 8 14 18 19 15 11 10 8 7 9 8 7 7 10 13 13 13 12 9 10 10 9 9 10 11 10 9 9 9 11 13 11 11 11 10 11 11 14 15 17 17 14 15 10 14 14 -13 3 36 14 5 7 0 9 -2 -4 8 -6 -5 9 8 6 5 7 10 9 7 6 7 5 7
7 7 6 6 6 6 6 6 6 7 7 7 6 5 5 7 6 6 10 14 17 16 13 10 8 9 9 6 7 9 9 11 11 12 12 10 11 9 9 11 11 11 10 9 9 9 10 11 12 11 11 13 12 14 19 10 11 22 20 23 11 3 21 -4 -15 26 19 2 10 1 5 5 -3 2 -4 -6 0 3 6 6 6 7 5 6 7 5 3 5
8 8 7 7 7 7 6 6 6 6 6 7 6 5 5 6 7 7 9 10 13 15 14 11 8 10 9 5 7 8 9 11 10 11 11 10 11 10 11 13 12 11 9 8 8 10 10 9 10 11 11 13 12 14 11 -10 -11 5 6 20 19 -2 18 16 -15 7 18 -1 5 6 1 7 5 2 1 -0 2 5 4 4 6 4 4 5 4 3 3 3
9 9 8 8 8 7 7 6 6 6 6 7 7 6 4 5 6 7 8 8 10 13 13 12 9 9 10 8 7 7 9 11 11 11 10 11 11 11 13 13 12 10 9 8 7 9 11 10 10 10 9 10 10 10 8 -1 1 11 3 4 14 1 6 25 7 -1 18 12 0 5 6 4 5 6 8 7 5 6 5 4 5 4 5 6 4 3 3 4
11 11 10 9 8 8 8 8 8 7 7 7 7 6 5 5 5 6 8 7 9 11 11 11 11 10 11 9 7 8 10 11 12 12 11 11 11 12 13 12 10 8 7 7 7 8 8 8 10 9 8 9 11 10 11 15 15 20 22 8 6 8 -3 11 22 -2 0 19 10 4 8 5 7 10 8 7 7 8 7 5 6 6 6 5 5 5 5 7
12 12 12 11 11 10 9 9 9 10 9 8 7 6 5 6 4 5 8 8 8 10 10 10 11 12 11 9 8 9 10 10 10 12 13 12 13 13 11 9 8 7 8 9 9 8 9 12 11 7 9 11 11 12 12 15 13 10 21 17 6 14 -0 -14 14 18 -4 2 12 8 6 7 10 7 -1 1 9 10 7 8 8 7 6 5 5 6 7 7
12 12 12 12 12 11 11 9 8 9 10 9 9 7 5 5 6 5 6 8 8 9 8 8 9 12 12 10 10 10 10 10 9 10 14 13 12 13 10 7 6 8 9 9 10 8 6 9 9 6 9 12 9 11 12 11 15 11 13 19 5 8 17 -9 -9 25 22 5 7 5 5 11 10 7 5 4 9 11 9 10 10 8 8 6 6 7 7 9
13 13 13 13 13 12 12 11 9 9 9 10 10 10 7 5 6 6 5 6 8 9 9 7 9 11 10 11 13 11 9 11 10 9 14 14 11 11 8 6 6 10 11 8 10 11 6 5 8 7 8 12 9 11 15 11 14 14 11 20 7 -10 17 23 -3 3 16 17 18 11 10 16 14 12 12 9 8 10 9 9 10 10 9 9 10 10 14 20
10 10 11 11 10 10 9 9 9 8 7 9 10 10 9 7 6 6 6 5 5 9 11 9 10 11 10 9 10 12 12 13 12 10 13 13 10 7 6 8 8 8 9 8 8 5 1 7 11 9 9 11 9 8 12 12 13 16 13 19 10 -14 -5 18 18 9 5 12 22 21 15 13 17 20 17 13 11 15 17 12 11 13 14 15 15 14 20 23
6 5 6 6 6 5 4 5 6 6 6 8 10 9 10 10 8 6 7 6 4 6 11 11 9 9 12 10 8 11 12 12 12 11 13 14 11 8 7 9 8 6 6 8 12 7 -1 5 12 11 11 11 11 10 10 14 13 12 19 21 10 1 -4 -2 14 19 10 8 11 19 19 6 5 15 19 17 13 19 24 15 13 16 14 11 11 15 19 15
5 4 4 4 4 4 4 4 4 5 5 7 9 9 9 10 10 8 7 8 7 4 7 10 10 8 8 10 11 9 6 12 18 16 13 11 10 9 7 8 9 8 11 10 11 14 8 6 10 10 10 8 11 12 9 15 11 -0 14 25 10 7 10 6 11 12 8 9 6 15 23 8 3 13 18 19 14 13 17 14 11 11 9 11 12 15 14 7
8 8 8 7 7 7 6 7 6 6 6 6 8 9 10 9 9 10 7 6 8 7 5 7 10 10 7 8 9 10 11 14 15 13 12 10 8 8 5 5 7 6 10 9 2 7 12 9 7 8 10 9 10 11 10 15 11 -2 6 17 11 8 9 9 12 8 4 8 6 10 19 11 6 7 5 12 13 5 7 10 9 12 13 13 13 13 8 4
13 12 12 11 11 10 10 10 9 9 8 7 7 7 9 9 9 10 8 6 6 8 10 11 10 11 11 10 7 9 14 11 5 8 14 12 7 7 5 4 7 5 6 9 3 1 9 13 12 10 5 2 6 11 12 11 6 4 9 12 12 12 10 9 11 10 7 10 10 8 15 12 2 3 8 13 11 4 8 11 9 18 16 6 10 14 5 2
15 15 15 15 14 13 13 13 12 11 10 8 8 7 7 8 9 9 8 10 10 7 7 9 9 9 11 12 10 9 9 8 9 11 12 12 8 5 4 2 5 6 5 6 6 4 6 10 13 13 4 -1 8 14 12 10 7 6 8 9 12 13 13 13 11 10 9 12 14 10 15 14 -2 4 22 19 9 5 9 14 15 17 11 9 17 10 -2 3
14 14 15 15 15 15 14 15 15 13 12 10 9 7 7 7 7 8 8 10 13 11 8 8 10 10 9 9 11 10 7 7 12 12 8 9 11 7 5 4 3 6 8 7 7 7 7 9 10 12 11 6 8 13 11 10 10 10 9 9 12 9 8 11 9 9 11 9 11 12 18 18 1 -2 8 8 12 16 9 14 25 16 3 14 20 3 -2 8
14 14 14 14 15 15 14 15 16 15 15 13 11 9 7 7 6 8 10 8 8 10 11 13 14 12 9 9 9 10 10 8 9 13 11 7 7 7 7 7 5 4 7 9 10 8 6 8 9 8 11 9 8 11 11 11 10 9 11 11 11 6 2 10 10 5 9 9 7 6 6 11 8 2 -1 -4 5 18 14 13 19 9 -0 10 11 0 1 7
13 12 13 13 13 14 14 14 14 15 15 14 13 11 8 7 7 8 12 11 7 6 3 3 9 11 10 9 9 10 10 9 7 7 9 10 9 8 6 6 8 7 4 4 6 8 8 8 6 6 9 9 9 8 5 10 13 10 12 13 10 4 0 9 13 6 10 14 13 11 7 9 11 6 3 -4 -5 7 14 11 8 2 3 8 4 1 3 4
11 11 11 11 11 11 11 12 13 13 14 14 14 13 10 8 8 9 13 13 8 8 9 4 3 9 11 9 6 9 13 13 13 10 7 8 9 11 10 6 7 7 6 5 3 3 6 11 11 8 7 5 6 9 4 5 11 8 8 9 5 5 3 4 8 7 5 6 8 12 11 10 8 3 6 7 2 3 2 1 3 1 4 7 1 1 4 5
12 12 12 12 12 12 12 11 11 11 12 12 12 12 13 12 12 11 13 15 7 5 17 20 10 6 10 13 8 7 13 11 8 9 11 9 8 10 12 13 13 10 7 7 9 7 2 7 16 12 9 8 4 7 7 2 5 8 8 6 1 6 8 3 13 20 11 -1 -4 6 14 13 8 4 5 9 10 9 1 -3 2 2 2 4 1 2 4 5
10 11 11 12 12 13 13 13 12 12 11 11 11 11 12 13 16 14 11 12 2 -8 2 13 13 8 4 10 13 9 11 9 4 7 11 9 9 8 7 10 15 14 11 4 5 13 7 0 8 7 4 10 7 5 8 4 2 4 11 12 3 6 7 -5 -0 15 16 7 -3 1 11 12 11 13 13 11 7 10 10 6 6 4 2 2 2 3 4 5
9 9 9 10 10 10 11 12 12 13 12 11 10 10 10 11 15 15 11 12 7 1 3 3 8 16 11 8 13 11 9 9 6 8 11 8 9 12 13 14 14 14 16 10 1 7 11 4 8 11 6 10 12 6 6 10 6 -5 1 12 4 6 14 3 -5 -2 2 10 8 4 8 7 6 10 13 14 11 9 8 8 11 9 3 2 1 3 5 6
10 11 11 11 12 11 12 12 11 13 13 13 13 12 12 12 13 13 12 13 11 10 15 7 -0 11 13 7 9 11 17 21 13 7 9 10 9 10 10 8 12 14 14 16 9 4 8 4 5 16 16 13 14 9 2 8 13 -0 -3 7 2 -0 8 7 9 9 4 8 12 10 12 15 14 7 3 7 13 15 12 9 9 8 5 5 3 2 5 5
10 12 15 14 14 15 14 14 13 14 13 13 14 13 12 12 10 9 11 17 14 8 14 12 1 4 8 5 4 2 7 15 13 5 7 12 11 11 8 -1 0 7 6 10 12 8 11 7 -3 3 9 5 6 11 12 11 14 12 9 7 2 4 7 1 3 13 12 6 10 13 10 10 11 6 3 5 9 16 21 19 13 7 5 6 6 5 5 4
13 17 18 14 15 16 16 17 17 18 17 16 14 14 15 14 11 6 7 16 16 8 10 8 -1 1 4 3 4 1 1 5 12 18 16 14 12 9 10 6 3 7 9 11 11 8 11 12 3 -1 4 9 12 13 14 10 5 10 16 15 7 2 7 7 0 3 7 2 3 11 10 8 10 9 9 10 8 10 17 18 14 10 8 7 7 6 4 3
16 18 15 13 16 17 17 19 21 22 21 20 18 14 12 12 15 12 9 14 16 11 11 9 4 3 -1 2 6 3 1 2 8 21 14 3 8 14 15 13 9 8 7 6 9 9 11 14 9 -0 -5 2 9 6 5 11 8 1 4 15 17 6 3 10 7 1 4 5 2 1 2 8 14 13 13 13 9 10 16 15 12 11 12 11 10 10 8 9
15 14 13 15 16 15 15 19 24 25 20 17 20 22 19 16 18 17 13 13 14 13 13 11 11 9 1 3 9 4 -1 -6 -7 7 10 0 2 8 14 15 9 7 5 2 3 4 8 15 16 10 3 -1 2 3 2 11 15 5 -3 0 8 11 10 12 11 8 8 10 12 9 5 5 5 6 11 16 16 14 13 12 10 10 11 12 13 14 14 13
13 16 17 15 12 13 15 16 19 22 18 16 19 22 25 25 20 15 12 13 13 11 12 11 10 12 9 7 8 6 5 0 -7 -3 7 9 -0 -7 6 19 12 7 7 4 4 1 -1 7 11 10 12 8 8 13 8 5 9 10 10 7 3 4 6 4 6 7 3 2 7 11 13 10 8 8 8 11 15 11 7 9 11 11 11 10 11 12 12 12
13 16 15 12 11 15 18 17 17 17 16 15 9 7 15 24 27 21 12 14 19 11 9 17 16 12 10 8 8 8 6 6 2 -2 -3 2 1 -7 3 20 17 10 10 8 12 12 4 4 3 2 7 7 4 10 10 3 5 9 9 10 10 9 6 4 3 3 2 1 -1 1 6 6 8 11 10 8 9 10 11 13 13 14 14 14 13 14 16 16
14 12 13 15 18 22 27 29 28 22 20 19 13 10 14 17 26 33 21 12 19 16 10 17 23 21 18 12 9 9 9 7 6 5 0 0 6 2 -2 7 13 11 11 11 13 16 16 14 10 6 9 5 -8 -5 4 2 5 17 16 10 11 13 11 7 6 5 7 8 6 6 8 5 1 6 14 15 10 8 10 11 11 13 15 14 13 11 11 12
13 10 13 23 32 37 39 40 40 31 22 20 16 16 17 9 9 26 30 16 9 11 14 13 11 17 25 21 12 9 10 8 7 9 4 -3 6 15 6 5 12 8 5 8 7 6 10 16 18 18 21 18 -0 -8 4 8 2 6 8 6 9 13 11 7 4 4 4 3 5 6 7 8 6 4 8 16 18 13 9 9 9 9 9 8 9 7 6 6
13 13 24 42 45 37 31 37 46 44 30 20 14 13 18 16 5 7 22 23 9 4 16 22 11 5 14 21 18 13 10 8 8 12 7 -7 -5 9 9 4 8 6 4 7 6 4 6 8 12 15 20 26 20 7 5 6 -0 -5 -5 -2 4 10 12 10 5 4 5 2 -1 0 4 12 17 11 5 11 18 15 8 6 6 7 7 6 6 5 5 5
13 22 42 50 29 9 12 24 35 42 37 27 19 12 14 22 17 5 9 21 18 3 0 19 30 19 10 16 18 14 12 9 8 13 14 5 0 7 10 6 4 3 4 6 7 8 11 10 11 12 11 16 22 24 22 12 3 -1 -2 0 4 5 7 12 10 7 8 6 1 -0 -0 1 7 14 16 14 12 8 6 4 3 4 4 2 3 5 6 7
15 35 54 41 8 -3 9 18 23 29 29 26 24 15 13 24 26 16 11 14 22 20 2 5 29 30 12 9 13 13 14 11 8 10 11 8 3 3 8 8 6 7 7 7 8 9 8 9 12 14 14 11 10 18 28 27 15 3 -6 -3 7 8 3 6 9 8 9 11 9 7 3 -2 -1 3 7 10 10 7 6 4 2 2 3 2 4 4 4 6
16 38 51 31 4 -5 -10 -3 27 43 26 14 19 15 10 18 22 22 23 12 11 27 20 2 14 28 17 7 7 9 13 12 8 8 8 8 6 4 5 5 5 7 8 5 5 7 6 8 11 13 15 16 14 11 15 24 30 28 16 6 5 6 4 5 6 6 7 8 9 9 9 8 7 1 -3 1 5 4 5 7 7 5 3 2 3 3 3 5
15 31 41 30 12 -1 -17 -16 21 48 35 18 18 18 16 19 16 19 30 23 6 12 18 7 6 18 19 14 10 6 7 9 10 10 10 10 9 8 6 3 1 3 6 6 5 6 8 6 6 10 14 17 18 17 14 14 22 32 36 28 12 0 -0 3 3 4 6 7 7 8 8 8 7 7 5 3 1 1 3 7 8 6 4 2 2 3 4 5
Height
5759 5758 5758 5757 5756 5756 5755 5754 5754 5753 5753 5752 5752 5751 5751 5751 5751 5752 5752 5752 5752 5753 5753 5753 5753 5753 5753 5753 5753 5754 5754 5755 5756 5757 5758 5759 5760 5761 5763 5764 5765 5767 5769 5771 5772 5774 5775 5777 5778 5779 5780 5782 5783 5784 5785 5786 5787 5789 5790 5791 5794 5795 5798 5800 5800 5800 5801 5796 5791 5796 5800 5799 5800 5802 5803 5803 5804 5804 5805 5805 5806 5807 5808 5808 5809 5808 5808 5810
5755 5755 5754 5754 5753 5752 5752 5751 5751 5750 5749 5749 5748 5748 5748 5748 5748 5749 5749 5749 5750 5750 5751 5751 5751 5751 5751 5752 5752 5752 5753 5753 5754 5755 5755 5757 5758 5759 5760 5761 5763 5764 5766 5768 5769 5771 5772 5774 5775 5777 5778 5779 5780 5781 5783 5784 5785 5786 5787 5790 5791 5794 5797 5796 5795 5794 5793 5792 5791 5796 5798 5797 5799 5800 5801 5801 5802 5802 5803 5803 5803 5804 5805 5806 5805 5805 5807 5808
5752 5752 5751 5751 5750 5749 5749 5748 5748 5747 5747 5746 5746 5745 5745 5745 5745 5746 5746 5747 5747 5748 5748 5749 5749 5750 5750 5750 5750 5750 5751 5751 5752 5753 5753 5754 5756 5757 5758 5759 5761 5762 5764 5765 5767 5768 5770 5771 5773 5774 5775 5776 5777 5779 5780 5781 5782 5784 5785 5787 5789 5792 5793 5789 5789 5789 5789 5790 5792 5795 5796 5795 5797 5798 5799 5799 5800 5800 5800 5800 5801 5802 5803 5803 5802 5803 5805 5806
5749 5749 5748 5747 5747 5746 5746 5745 5745 5744 5744 5743 5743 5742 5742 5742 5743 5743 5743 5744 5745 5745 5746 5747 5747 5748 5748 5748 5748 5749 5749 5749 5749 5751 5751 5752 5753 5754 5756 5757 5758 5760 5761 5763 5764 5766 5767 5769 5770 5771 5772 5773 5775 5776 5777 5779 5780 5782 5783 5785 5788 5788 5787 5785 5787 5787 5787 5789 5791 5793 5794 5793 5795 5796 5797 5797 5798 5798 5798 5799 5799 5800 5801 5801 5800 5802 5803 5804
5746 5745 5745 5744 5744 5743 5743 5742 5742 5741 5741 5741 5740 5740 5740 5740 5740 5740 5741 5741 5742 5743 5744 5744 5745 5745 5746 5746 5747 5747 5747 5746 5748 5749 5749 5750 5751 5752 5753 5754 5756 5757 5759 5760 5762 5763 5765 5766 5768 5769 5770 5771 5772 5774 5775 5777 5778 5779 5781 5784 5784 5783 5783 5784 5783 5783 5785 5788 5789 5791 5791 5791 5792 5794 5795 5796 5797 5797 5796 5797 5798 5798 5798 5799 5799 5800 5801 5802
5743 5742 5742 5741 5741 5740 5740 5739 5739 5739 5738 5738 5738 5737 5737 5737 5737 5737 5738 5739 5739 5740 5741 5742 5742 5743 5744 5744 5744 5745 5745 5744 5746 5747 5747 5748 5749 5750 5751 5752 5754 5755 5756 5758 5759 5761 5762 5764 5765 5766 5768 5769 5770 5771 5773 5775 5776 5777 5779 5781 5780 5780 5783 5781 5779 5782 5784 5786 5787 5788 5789 5790 5791 5792 5793 5794 5795 5794 5794 5795 5796 5797 5797 5797 5798 5799 5800 5801
5739 5739 5739 5738 5738 5737 5737 5737 5736 5736 5736 5735 5735 5735 5734 5734 5734 5735 5735 5736 5737 5738 5738 5739 5740 5740 5741 5742 5742 5743 5742 5743 5745 5745 5746 5746 5747 5748 5749 5750 5751 5753 5754 5756 5757 5759 5760 5761 5763 5764 5765 5766 5767 5769 5771 5772 5773 5775 5777 5778 5777 5778 5780 5776 5777 5781 5781 5783 5785 5786 5787 5788 5789 5789 5790 5792 5791 5792 5793 5794 5795 5795 5795 5796 5796 5797 5798 5799
5736 5736 5736 5736 5735 5735 5734 5734 5734 5733 5733 5733 5732 5732 5732 5732 5732 5732 5732 5733 5734 5735 5735 5736 5737 5738 5738 5739 5740 5740 5740 5741 5743 5743 5744 5744 5745 5746 5747 5748 5749 5751 5752 5753 5755 5756 5758 5759 5760 5761 5763 5764 5765 5766 5769 5769 5771 5773 5774 5775 5774 5776 5777 5774 5777 5779 5779 5781 5782 5784 5786 5786 5787 5786 5787 5789 5789 5790 5791 5792 5793 5794 5794 5794 5794 5796 5796 5797
5734 5733 5733 5733 5732 5732 5732 5731 5731 5731 5730 5730 5730 5730 5729 5729 5729 5730 5730 5730 5731 5732 5732 5733 5734 5735 5735 5736 5737 5737 5737 5739 5740 5741 5742 5742 5743 5744 5745 5746 5747 5748 5750 5751 5752 5754 5755 5756 5758 5759 5760 5761 5762 5764 5765 5766 5769 5771 5772 5772 5773 5774 5774 5774 5775 5777 5777 5778 5780 5782 5783 5783 5784 5784 5786 5787 5787 5788 5789 5790 5791 5792 5792 5792 5793 5793 5794 5795
5731 5730 5730 5730 5730 5730 5729 5729 5729 5728 5728 5727 5727 5727 5727 5727 5727 5727 5727 5727 5728 5728 5729 5730 5731 5732 5732 5734 5734 5734 5735 5737 5737 5738 5739 5740 5741 5742 5743 5744 5745 5746 5747 5749 5750 5751 5752 5754 5755 5756 5757 5758 5759 5761 5762 5764 5767 5767 5768 5769 5770 5771 5772 5772 5773 5775 5776 5776 5777 5780 5781 5781 5781 5783 5785 5784 5784 5786 5787 5788 5789 5790 5790 5790 5791 5792 5792 5792
5728 5728 5728 5727 5727 5727 5727 5727 5726 5726 5725 5725 5725 5724 5724 5724 5724 5724 5724 5724 5725 5725 5726 5727 5728 5729 5730 5731 5731 5731 5733 5734 5735 5736 5737 5738 5739 5740 5741 5742 5743 5744 5745 5746 5747 5749 5750 5751 5753 5754 5755 5756 5756 5758 5760 5762 5763 5763 5765 5766 5767 5770 5770 5770 5771 5773 5774 5774 5776 5778 5779 5779 5779 5782 5783 5781 5782 5784 5785 5787 5787 5788 5788 5787 5789 5790 5789 5788
5725 5725 5725 5725 5725 5724 5724 5724 5724 5723 5723 5723 5722 5722 5722 5721 5721 5720 5721 5721 5722 5722 5723 5724 5725 5726 5727 5728 5728 5729 5730 5731 5732 5734 5734 5735 5736 5737 5738 5740 5740 5742 5743 5744 5745 5746 5747 5749 5751 5752 5752 5752 5754 5756 5756 5758 5760 5760 5763 5765 5766 5768 5767 5768 5770 5771 5772 5773 5774 5776 5776 5776 5778 5781 5781 5779 5781 5782 5783 5785 5785 5786 5786 5784 5786 5787 5785 5785
5722 5722 5722 5722 5722 5722 5722 5721 5721 5721 5721 5720 5720 5720 5719 5718 5718 5717 5717 5718 5719 5719 5720 5721 5722 5723 5724 5725 5726 5727 5727 5729 5730 5731 5732 5733 5734 5735 5736 5737 5738 5739 5740 5741 5742 5744 5745 5746 5748 5748 5748 5751 5752 5752 5752 5756 5757 5758 5761 5763 5764 5765 5765 5766 5768 5769 5770 5771 5771 5773 5774 5775 5777 5780 5779 5777 5779 5781 5781 5782 5784 5784 5783 5783 5783 5783 5782 5783
5719 5719 5719 5719 5719 5719 5719 5719 5719 5718 5718 5718 5718 5717 5717 5716 5715 5714 5714 5715 5716 5716 5717 5718 5719 5721 5722 5722 5724 5724 5725 5726 5727 5728 5730 5730 5731 5732 5733 5734 5735 5736 5738 5739 5740 5741 5742 5743 5744 5744 5746 5748 5747 5747 5750 5753 5755 5756 5758 5759 5761 5762 5763 5765 5766 5767 5768 5768 5769 5771 5773 5774 5775 5777 5776 5776 5777 5778 5779 5780 5781 5782 5781 5781 5780 5779 5780 5782
5716 5716 5716 5716 5716 5716 5716 5716 5716 5716 5716 5715 5715 5715 5714 5713 5712 5712 5712 5712 5713 5714 5715 5716 5717 5718 5719 5720 5721 5722 5722 5723 5725 5726 5727 5728 5728 5729 5730 5731 5732 5733 5735 5736 5737 5738 5739 5740 5741 5741 5743 5744 5744 5746 5749 5750 5751 5753 5755 5756 5758 5760 5763 5765 5763 5764 5766 5766 5767 5769 5771 5773 5775 5777 5774 5773 5776 5776 5777 5778 5778 5779 5779 5779 5778 5777 5779 5781
5713 5713 5713 5713 5713 5713 5713 5713 5713 5713 5713 5713 5713 5712 5712 5711 5710 5710 5709 5710 5710 5711 5712 5713 5714 5716 5716 5717 5718 5719 5719 5721 5722 5723 5724 5725 5726 5726 5727 5728 5729 5731 5732 5733 5734 5735 5736 5737 5738 5738 5740 5741 5742 5744 5746 5747 5749 5750 5752 5754 5756 5758 5763 5765 5760 5761 5765 5764 5764 5767 5770 5773 5776 5778 5773 5770 5773 5774 5775 5776 5776 5777 5777 5776 5776 5775 5777 5779
5710 5710 5710 5710 5710 5710 5710 5711 5711 5711 5710 5710 5710 5710 5709 5708 5708 5708 5707 5707 5708 5709 5710 5711 5712 5713 5713 5715 5716 5716 5718 5719 5720 5721 5722 5722 5723 5724 5725 5726 5727 5728 5729 5730 5731 5732 5733 5734 5735 5736 5737 5738 5740 5741 5743 5745 5747 5748 5750 5752 5755 5757 5761 5764 5759 5758 5763 5762 5762 5765 5769 5772 5773 5773 5771 5769 5771 5773 5774 5774 5774 5774 5775 5775 5773 5773 5775 5777
5706 5707 5707 5707 5707 5708 5707 5708 5708 5708 5708 5708 5708 5707 5707 5706 5706 5706 5706 5706 5706 5707 5708 5709 5710 5710 5711 5712 5713 5714 5715 5716 5717 5718 5719 5720 5720 5721 5722 5723 5724 5726 5726 5727 5728 5729 5730 5731 5732 5733 5734 5736 5737 5739 5741 5743 5746 5747 5749 5750 5753 5755 5757 5762 5761 5757 5758 5760 5760 5763 5766 5769 5768 5767 5767 5768 5770 5771 5772 5772 5772 5772 5773 5773 5771 5771 5773 5775
5703 5703 5704 5704 5704 5704 5704 5705 5705 5705 5705 5705 5705 5705 5704 5704 5704 5704 5704 5704 5704 5705 5705 5706 5708 5707 5709 5710 5711 5712 5713 5714 5715 5716 5716 5717 5718 5719 5720 5721 5722 5723 5724 5725 5726 5727 5728 5729 5730 5730 5732 5734 5735 5737 5739 5742 5746 5747 5748 5748 5750 5754 5754 5758 5762 5756 5754 5758 5758 5761 5764 5766 5767 5766 5764 5766 5768 5769 5769 5770 5770 5771 5772 5771 5770 5769 5771 5773
5700 5700 5700 5701 5701 5701 5701 5701 5702 5702 5702 5703 5703 5702 5702 5701 5701 5702 5702 5702 5702 5703 5703 5704 5705 5705 5706 5708 5708 5710 5711 5712 5712 5713 5714 5715 5716 5717 5718 5719 5720 5721 5722 5723 5724 5725 5726 5727 5728 5729 5730 5732 5733 5735 5736 5737 5739 5741 5744 5746 5748 5752 5753 5756 5759 5752 5750 5756 5757 5759 5762 5763 5765 5765 5763 5762 5765 5767 5767 5768 5768 5769 5770 5770 5768 5768 5769 5771
5696 5696 5697 5697 5698 5698 5698 5698 5699 5699 5699 5700 5700 5700 5699 5699 5699 5700 5700 5700 5700 5701 5701 5702 5702 5703 5704 5705 5707 5708 5709 5709 5710 5711 5712 5712 5713 5714 5715 5717 5718 5719 5720 5721 5722 5723 5724 5725 5726 5727 5728 5729 5730 5732 5732 5732 5735 5737 5740 5743 5746 5750 5752 5756 5756 5748 5747 5754 5756 5757 5760 5761 5761 5764 5762 5760 5762 5764 5765 5766 5767 5767 5768 5767 5766 5766 5767 5768
5692 5692 5693 5693 5694 5695 5695 5695 5695 5696 5696 5697 5697 5697 5696 5696 5697 5697 5698 5698 5698 5699 5699 5699 5700 5700 5701 5703 5705 5706 5706 5707 5708 5708 5709 5710 5711 5712 5713 5715 5716 5717 5718 5719 5720 5721 5722 5723 5724 5725 5725 5726 5728 5729 5730 5732 5735 5737 5739 5741 5744 5747 5750 5753 5750 5744 5746 5752 5755 5755 5757 5757 5758 5761 5760 5757 5759 5762 5762 5764 5764 5765 5766 5765 5765 5764 5765 5766
5688 5689 5689 5690 5690 5691 5692 5692 5692 5693 5693 5694 5694 5694 5694 5694 5694 5695 5695 5696 5695 5696 5698 5697 5697 5698 5699 5701 5702 5703 5704 5704 5705 5706 5707 5708 5709 5710 5711 5713 5714 5715 5716 5717 5719 5720 5721 5722 5722 5722 5723 5725 5727 5728 5729 5731 5733 5735 5737 5740 5742 5745 5748 5749 5745 5743 5746 5749 5753 5753 5753 5754 5755 5757 5756 5754 5757 5759 5760 5761 5762 5763 5764 5763 5763 5762 5762 5763
5685 5686 5686 5686 5687 5688 5688 5688 5688 5689 5690 5690 5691 5691 5691 5691 5692 5693 5693 5693 5693 5694 5695 5695 5695 5696 5697 5699 5700 5700 5701 5702 5703 5703 5705 5706 5706 5708 5710 5711 5712 5713 5715 5716 5717 5718 5719 5719 5720 5720 5722 5724 5725 5726 5728 5729 5731 5733 5735 5737 5740 5743 5746 5746 5742 5741 5744 5746 5750 5751 5750 5751 5751 5752 5753 5753 5755 5756 5757 5759 5759 5761 5761 5761 5761 5760 5760 5761
5682 5682 5683 5683 5684 5684 5685 5685 5685 5686 5687 5687 5688 5688 5688 5688 5689 5690 5690 5691 5691 5691 5692 5693 5693 5694 5695 5697 5697 5697 5698 5699 5700 5701 5702 5704 5705 5706 5708 5709 5711 5712 5713 5714 5715 5717 5717 5717 5718 5719 5721 5722 5723 5725 5726 5728 5730 5731 5733 5735 5738 5741 5743 5742 5739 5739 5743 5745 5747 5748 5748 5749 5749 5750 5751 5751 5752 5753 5754 5755 5756 5757 5758 5758 5758 5758 5759 5760
5679 5680 5680 5680 5680 5681 5682 5682 5682 5683 5683 5684 5685 5685 5685 5686 5686 5687 5688 5689 5689 5688 5690 5690 5691 5692 5693 5694 5694 5695 5696 5697 5698 5699 5700 5702 5703 5705 5706 5707 5709 5710 5711 5712 5713 5715 5715 5715 5717 5718 5719 5721 5722 5723 5724 5726 5728 5730 5731 5733 5735 5736 5738 5739 5737 5739 5743 5743 5743 5745 5746 5748 5747 5746 5748 5749 5749 5750 5751 5752 5753 5754 5755 5755 5754 5755 5757 5759
5676 5677 5677 5677 5677 5678 5679 5679 5680 5679 5680 5681 5682 5682 5682 5683 5683 5684 5685 5687 5687 5686 5687 5688 5688 5690 5691 5691 5692 5693 5694 5695 5696 5697 5698 5700 5701 5703 5704 5706 5707 5708 5709 5711 5712 5713 5713 5714 5716 5717 5718 5719 5720 5722 5723 5725 5727 5728 5729 5730 5732 5733 5734 5735 5736 5738 5741 5740 5740 5741 5743 5746 5745 5744 5745 5746 5746 5748 5749 5749 5750 5751 5752 5751 5751 5753 5755 5756
5673 5673 5673 5673 5674 5674 5675 5676 5676 5676 5677 5678 5678 5679 5679 5680 5680 5682 5683 5683 5684 5683 5684 5685 5686 5687 5688 5689 5690 5690 5691 5693 5694 5695 5696 5698 5699 5701 5703 5704 5705 5706 5708 5709 5710 5711 5711 5713 5714 5715 5716 5718 5719 5720 5721 5723 5725 5726 5726 5728 5730 5731 5732 5734 5735 5738 5739 5738 5738 5740 5741 5743 5743 5742 5743 5743 5744 5745 5746 5746 5747 5748 5748 5748 5749 5751 5753 5754
5669 5669 5669 5669 5670 5670 5671 5672 5673 5673 5674 5674 5675 5675 5676 5676 5677 5679 5679 5679 5681 5682 5682 5683 5684 5685 5686 5687 5687 5688 5690 5692 5692 5692 5694 5695 5697 5699 5700 5702 5703 5705 5706 5708 5708 5708 5709 5711 5712 5714 5715 5717 5717 5718 5719 5722 5723 5723 5724 5727 5728 5730 5731 5732 5734 5736 5736 5735 5736 5738 5739 5741 5741 5740 5740 5741 5742 5743 5743 5744 5745 5746 5746 5746 5747 5749 5750 5752
5665 5665 5665 5665 5665 5666 5667 5667 5668 5669 5670 5670 5670 5671 5672 5673 5674 5675 5675 5676 5679 5679 5679 5680 5681 5682 5684 5684 5685 5687 5688 5689 5689 5690 5692 5694 5695 5697 5698 5700 5702 5703 5704 5705 5706 5706 5708 5709 5711 5712 5713 5714 5715 5716 5718 5720 5721 5722 5724 5726 5727 5728 5729 5730 5732 5733 5733 5733 5735 5736 5737 5739 5741 5739 5738 5739 5740 5740 5741 5742 5744 5743 5743 5743 5745 5747 5749 5750
5661 5661 5661 5661 5661 5662 5662 5663 5664 5665 5666 5666 5666 5667 5668 5669 5670 5670 5670 5674 5678 5677 5676 5678 5678 5680 5682 5682 5683 5684 5685 5686 5687 5689 5690 5691 5693 5695 5696 5698 5699 5701 5702 5703 5704 5705 5707 5708 5709 5711 5711 5712 5714 5715 5717 5718 5719 5721 5723 5725 5726 5727 5728 5729 5730 5730 5730 5731 5733 5735 5735 5737 5740 5738 5736 5736 5737 5738 5739 5740 5741 5740 5740 5742 5743 5745 5748 5748
5658 5658 5658 5658 5657 5658 5658 5659 5660 5660 5661 5661 5662 5662 5664 5665 5665 5666 5669 5674 5676 5673 5674 5675 5676 5678 5679 5680 5681 5682 5683 5684 5685 5687 5688 5690 5692 5693 5695 5696 5697 5699 5701 5702 5703 5704 5705 5706 5708 5709 5710 5711 5713 5714 5715 5717 5718 5720 5722 5723 5724 5725 5726 5727 5728 5727 5729 5730 5731 5733 5734 5735 5737 5736 5733 5732 5734 5737 5738 5738 5739 5740 5741 5742 5742 5745 5746 5746
5654 5654 5654 5654 5654 5654 5654 5655 5656 5656 5656 5657 5658 5658 5659 5659 5660 5663 5668 5671 5672 5670 5672 5673 5673 5675 5676 5677 5678 5679 5681 5682 5683 5685 5686 5687 5689 5690 5692 5694 5695 5698 5699 5700 5701 5702 5703 5704 5705 5707 5708 5709 5711 5713 5714 5716 5717 5719 5720 5721 5722 5724 5724 5725 5726 5727 5728 5729 5729 5731 5732 5733 5734 5731 5729 5730 5734 5736 5736 5737 5738 5740 5741 5741 5741 5742 5742 5743
5651 5651 5651 5651 5651 5650 5650 5651 5651 5652 5652 5652 5653 5653 5654 5654 5656 5661 5666 5668 5668 5667 5668 5670 5671 5672 5674 5675 5675 5676 5678 5679 5680 5682 5683 5684 5686 5687 5689 5691 5692 5695 5697 5697 5698 5700 5701 5701 5703 5705 5706 5708 5709 5711 5712 5714 5715 5717 5718 5719 5720 5722 5723 5723 5725 5727 5728 5728 5728 5728 5728 5730 5732 5729 5728 5729 5731 5733 5735 5736 5737 5736 5736 5736 5737 5738 5740 5742
5648 5648 5647 5647 5647 5646 5646 5647 5647 5648 5648 5648 5648 5648 5649 5650 5654 5659 5663 5665 5665 5664 5665 5667 5668 5670 5671 5672 5673 5674 5676 5677 5678 5680 5681 5682 5683 5685 5687 5688 5690 5693 5694 5695 5696 5698 5699 5699 5701 5703 5704 5705 5707 5709 5710 5712 5714 5715 5716 5717 5719 5721 5721 5722 5723 5723 5725 5726 5726 5726 5726 5728 5728 5727 5727 5728 5728 5729 5731 5732 5732 5732 5732 5732 5733 5736 5740 5742
5645 5644 5644 5643 5643 5643 5643 5643 5643 5644 5644 5644 5644 5643 5645 5648 5652 5657 5659 5660 5660 5661 5662 5663 5665 5667 5668 5669 5670 5671 5674 5675 5676 5677 5678 5679 5681 5682 5684 5686 5687 5690 5692 5693 5695 5696 5697 5699 5699 5700 5701 5703 5705 5707 5707 5710 5712 5713 5714 5715 5718 5720 5720 5720 5721 5721 5722 5723 5724 5724 5724 5724 5724 5725 5726 5727 5727 5728 5727 5728 5728 5729 5731 5732 5731 5734 5737 5739
5641 5641 5640 5640 5639 5639 5638 5639 5639 5639 5640 5639 5639 5640 5642 5645 5649 5653 5653 5653 5655 5657 5658 5660 5662 5664 5665 5667 5668 5669 5671 5672 5672 5673 5675 5677 5678 5679 5682 5683 5684 5686 5688 5690 5692 5693 5694 5697 5697 5696 5699 5701 5702 5704 5705 5707 5709 5711 5712 5714 5716 5717 5717 5717 5719 5719 5720 5721 5722 5722 5722 5722 5723 5723 5723 5724 5726 5726 5726 5727 5728 5729 5730 5731 5731 5732 5734 5735
5638 5637 5637 5636 5635 5635 5634 5634 5635 5635 5635 5635 5635 5636 5639 5641 5645 5648 5647 5647 5651 5653 5654 5656 5659 5661 5662 5664 5665 5666 5668 5669 5669 5670 5673 5674 5675 5676 5679 5680 5681 5683 5685 5687 5689 5689 5691 5694 5694 5694 5697 5698 5699 5701 5702 5704 5706 5707 5709 5711 5713 5714 5714 5715 5716 5717 5718 5719 5720 5721 5720 5721 5723 5721 5720 5721 5722 5723 5724 5725 5726 5728 5730 5731 5732 5732 5732 5732
5634 5634 5632 5632 5631 5631 5630 5629 5630 5630 5630 5630 5631 5633 5635 5637 5640 5643 5642 5643 5647 5649 5649 5653 5656 5658 5658 5660 5662 5663 5664 5666 5666 5668 5670 5670 5671 5673 5676 5678 5679 5680 5681 5683 5685 5686 5687 5690 5691 5692 5695 5695 5695 5697 5699 5701 5703 5704 5705 5707 5709 5710 5711 5712 5713 5714 5716 5717 5718 5719 5719 5719 5720 5719 5717 5718 5719 5720 5721 5722 5724 5726 5728 5729 5730 5731 5731 5731
5631 5630 5628 5627 5627 5626 5625 5624 5624 5625 5625 5626 5627 5628 5630 5632 5634 5637 5637 5638 5642 5644 5646 5650 5652 5653 5654 5656 5659 5659 5660 5662 5662 5664 5667 5667 5668 5670 5672 5674 5675 5676 5678 5680 5682 5683 5685 5687 5688 5689 5691 5691 5692 5694 5697 5699 5702 5702 5703 5705 5706 5707 5708 5709 5710 5711 5713 5715 5716 5718 5717 5716 5716 5716 5715 5715 5717 5718 5718 5720 5722 5724 5725 5726 5728 5729 5730 5730
5628 5626 5624 5623 5622 5621 5620 5619 5619 5619 5620 5620 5621 5623 5624 5626 5628 5631 5632 5634 5636 5638 5641 5643 5644 5647 5650 5653 5655 5656 5657 5659 5660 5661 5664 5664 5664 5666 5669 5671 5672 5673 5676 5678 5679 5680 5681 5684 5685 5686 5687 5689 5691 5693 5694 5697 5699 5700 5701 5702 5704 5705 5706 5707 5708 5708 5710 5711 5713 5714 5714 5712 5713 5714 5714 5713 5714 5715 5715 5717 5719 5720 5721 5723 5725 5727 5728 5729
5625 5622 5620 5619 5617 5616 5615 5614 5614 5614 5614 5615 5616 5617 5618 5619 5623 5627 5628 5631 5632 5633 5636 5638 5639 5643 5646 5648 5650 5653 5654 5656 5658 5659 5661 5662 5661 5662 5665 5667 5669 5671 5673 5674 5675 5676 5678 5680 5682 5683 5684 5686 5688 5689 5689 5692 5694 5696 5698 5699 5701 5702 5703 5703 5705 5706 5707 5708 5709 5710 5710 5709 5709 5711 5711 5712 5712 5711 5712 5714 5716 5717 5718 5720 5722 5724 5725 5726
5621 5619 5616 5614 5613 5611 5610 5609 5609 5609 5610 5610 5610 5612 5613 5615 5618 5622 5624 5626 5628 5630 5632 5633 5635 5639 5642 5644 5647 5648 5649 5652 5654 5655 5657 5659 5659 5658 5659 5663 5666 5668 5670 5670 5671 5673 5676 5677 5679 5680 5682 5683 5684 5685 5686 5689 5691 5692 5693 5696 5698 5699 5700 5701 5702 5703 5704 5704 5705 5707 5707 5705 5706 5708 5709 5709 5709 5709 5709 5711 5713 5714 5715 5717 5719 5721 5722 5723
5617 5615 5613 5610 5608 5607 5605 5605 5605 5605 5605 5605 5605 5607 5608 5610 5613 5616 5619 5621 5624 5626 5627 5628 5632 5635 5637 5640 5642 5644 5646 5648 5651 5653 5654 5655 5655 5656 5657 5660 5663 5664 5665 5667 5668 5671 5673 5674 5675 5677 5678 5680 5682 5683 5685 5687 5688 5689 5691 5693 5694 5696 5697 5698 5698 5699 5700 5701 5702 5703 5703 5702 5702 5704 5706 5706 5706 5706 5706 5708 5710 5711 5713 5715 5716 5718 5719 5720
5614 5611 5609 5606 5604 5601 5600 5599 5599 5599 5599 5599 5600 5602 5603 5605 5607 5610 5614 5617 5619 5621 5623 5625 5628 5630 5632 5635 5638 5641 5643 5644 5648 5651 5652 5652 5652 5653 5655 5657 5659 5660 5662 5664 5666 5667 5669 5670 5672 5674 5675 5676 5678 5679 5681 5682 5683 5685 5687 5689 5690 5692 5693 5694 5695 5695 5696 5698 5699 5700 5699 5698 5699 5701 5703 5703 5703 5703 5704 5706 5707 5709 5711 5712 5714 5715 5716 5717
5611 5608 5605 5602 5598 5595 5593 5592 5591 5592 5593 5594 5596 5598 5600 5601 5603 5605 5609 5612 5614 5617 5619 5622 5623 5626 5629 5632 5635 5638 5640 5642 5646 5647 5649 5651 5650 5650 5653 5655 5655 5657 5660 5661 5663 5664 5665 5666 5668 5670 5671 5672 5673 5673 5675 5677 5680 5682 5684 5684 5686 5688 5689 5690 5691 5693 5693 5695 5696 5696 5695 5696 5697 5698 5700 5700 5700 5701 5702 5704 5705 5707 5708 5710 5711 5712 5713 5714
5608 5604 5601 5596 5592 5589 5587 5586 5585 5586 5588 5590 5592 5594 5596 5598 5599 5601 5604 5607 5610 5613 5615 5617 5619 5622 5626 5628 5632 5635 5637 5640 5643 5644 5647 5650 5647 5646 5650 5652 5652 5655 5657 5658 5659 5661 5662 5663 5664 5666 5667 5668 5670 5671 5673 5675 5677 5678 5678 5679 5682 5683 5685 5686 5687 5689 5690 5691 5692 5691 5691 5692 5694 5695 5697 5697 5698 5699 5700 5701 5703 5705 5706 5707 5708 5709 5710 5711
5605 5601 5596 5592 5588 5586 5585 5583 5582 5582 5584 5587 5589 5591 5594 5595 5596 5597 5600 5603 5606 5608 5611 5613 5616 5620 5623 5625 5629 5632 5634 5636 5639 5640 5644 5645 5644 5645 5648 5648 5650 5652 5654 5655 5656 5658 5659 5660 5661 5662 5663 5664 5666 5668 5670 5672 5672 5672 5673 5676 5678 5680 5681 5682 5683 5684 5686 5687 5687 5687 5687 5689 5690 5692 5694 5695 5696 5697 5698 5699 5701 5702 5703 5705 5705 5706 5707 5707
5603 5598 5592 5589 5587 5586 5585 5583 5581 5581 5582 5584 5586 5589 5591 5592 5593 5595 5598 5600 5602 5605 5608 5611 5614 5617 5620 5623 5626 5627 5630 5632 5634 5636 5639 5641 5642 5644 5645 5646 5648 5650 5650 5652 5654 5656 5657 5657 5658 5659 5660 5661 5662 5664 5666 5667 5668 5668 5670 5672 5674 5675 5676 5677 5679 5681 5682 5683 5683 5684 5685 5686 5687 5689 5691 5692 5694 5694 5695 5696 5698 5699 5700 5701 5701 5702 5703 5704
5601 5596 5591 5589 5588 5587 5586 5584 5582 5581 5582 5583 5585 5587 5588 5589 5591 5593 5595 5597 5600 5602 5606 5609 5611 5614 5617 5619 5621 5623 5626 5629 5630 5634 5637 5638 5639 5641 5641 5643 5646 5647 5648 5649 5651 5653 5654 5654 5655 5657 5657 5658 5659 5660 5661 5663 5664 5664 5666 5668 5669 5671 5673 5674 5676 5677 5678 5679 5679 5681 5682 5682 5684 5687 5688 5689 5690 5691 5692 5694 5695 5696 5697 5698 5698 5699 5700 5701
5601 5596 5592 5590 5589 5588 5587 5586 5583 5582 5582 5583 5584 5585 5587 5588 5590 5591 5593 5596 5598 5601 5604 5607 5609 5611 5613 5616 5619 5622 5624 5626 5629 5631 5633 5634 5636 5638 5639 5642 5644 5645 5645 5646 5648 5650 5650 5651 5653 5654 5654 5655 5656 5657 5657 5659 5659 5659 5661 5663 5665 5666 5669 5671 5672 5673 5674 5675 5676 5677 5677 5678 5681 5683 5685 5686 5687 5688 5689 5691 5692 5693 5694 5694 5694 5695 5696 5697
5601 5597 5593 5591 5591 5590 5588 5587 5585 5583 5582 5583 5584 5585 5586 5587 5588 5590 5592 5595 5598 5600 5602 5605 5607 5609 5612 5615 5618 5620 5622 5624 5627 5629 5631 5632 5634 5636 5637 5640 5641 5642 5643 5644 5645 5647 5647 5648 5650 5651 5651 5653 5653 5653 5654 5655 5655 5655 5657 5659 5660 5662 5664 5666 5668 5669 5670 5672 5672 5672 5672 5675 5678 5680 5681 5683 5684 5685 5687 5688 5690 5690 5690 5690 5690 5691 5692 5694